Regional Weather Roundup
Issued by NWS

Home | Current Version | Previous Version | Graphics & Text | Print | Product List | Glossary On
Versions: 1 2 3 4 5 6 7 8 9 10 11 12 13 14 15 16 17 18 19 20 21 22 23 24 25 26 27 28 29 30 31 32 33 34 35 36 37 38 39 40 41 42 43 44 45 46 47 48 49 50
000
ASUS45 KCYS 122210
RWRWY

WYOMING REGIONAL WEATHER ROUNDUP
NATIONAL WEATHER SERVICE CHEYENNE WY
400 PM MDT SAT JUL 12 2014

NOTE:  "FAIR" INDICATES FEW OR NO CLOUDS BELOW 12,000 FEET
WITH NO SIGNIFICANT WEATHER AND/OR OBSTRUCTIONS TO VISIBILITY.

WYZ001-122300-
YELLOWSTONE NATIONAL PARK

CITY           SKY/WX    TMP DP  RH WIND       PRES   REMARKS
LK YELLOWSTONE   N/A     54  53  97 W6        30.52R
W YELLOWSTONE  NOT AVBL

$$
WYZ002>013-054>058-071-098>099-122300-
NORTHERN WYOMING

CITY           SKY/WX    TMP DP  RH WIND       PRES   REMARKS
JACKSON        NOT AVBL
CODY           PTSUNNY   73  54  49 N10       30.29S
GREYBULL       SUNNY     90  44  20 NW15      30.16F
WORLAND        PTSUNNY   83  49  30 CALM      30.20S
SHERIDAN       MOSUNNY   85  54  34 NW12      30.23S
BUFFALO        CLOUDY    77  53  43 N14       30.30S
GILLETTE       MOSUNNY   82  55  39 N15G22    30.23F
HULETT         FAIR      81  57  44 MISG      30.23
NEWCASTLE      FAIR      82  50  32 N13       30.18

$$
WYZ014>020-022>026-101>103-122300-
CENTRAL WYOMING

CITY           SKY/WX    TMP DP  RH WIND       PRES   REMARKS
BIG PINEY      MOSUNNY   82  43  25 MISG      30.37F
PINEDALE       MOCLDY    75  43  31 NE14      30.39R
DUBOIS         CLOUDY    61  54  77 SE8       30.41R
LANDER         PTSUNNY   79  50  36 SW13      30.29S
RIVERTON       MOSUNNY   80  49  33 E5        30.29S
CASPER         CLOUDY    82  49  31 NE15      30.27S
DOUGLAS        MOSUNNY   84  49  29 NE6       30.25F

$$
WYZ021-027>030-104>119-122300-
SOUTHERN WYOMING

CITY           SKY/WX    TMP DP  RH WIND       PRES   REMARKS
EVANSTON       MOSUNNY   81  47  30 SW8       30.37F
KEMMERER       CLOUDY   N/A N/A N/A NE14      30.41R
ROCK SPRINGS   MOSUNNY   83  43  24 N6        30.33F
DIXON          CLOUDY    80  50  35 NE9G16    30.34F
RAWLINS        MOSUNNY   82  42  24 VRB5      30.35F
SARATOGA       FAIR      77  46  33 N7        30.38S
LARAMIE        PTSUNNY   71  51  49 VRB7      30.40S
CHEYENNE       MOSUNNY   76  51  41 N9        30.33R
TORRINGTON     SUNNY     84  58  40 VRB6      30.19F

$$



USA.gov is the U.S. government's official web portal to all federal, state and local government web resources and services.